User: anonymous
Location: Columbia
(38.9520°N, 92.3340°W)
Time: 06:05:09
(UTC-05:00)
Language:

Iridium 15 - Orbit

View from above orbital plane
View from above orbital plane
View from above satellite
View from above satellite

Ground track
Ground track

The orbit data is extracted from the following two-line orbital elements,

1 24869U 97034A   14107.20289602  .00000241  00000-0  79051-4 0  8716
2 24869 086.3963 145.4510 0002399 107.3549 320.7824 14.34218249878083
Epoch (UTC): 17 April 2014 04:52:10
Eccentricity: 0.0002399
inclination: 86.3963°
perigee height: 776 km
apogee height: 779 km
right ascension of ascending node: 145.4510°
argument of perigee: 107.3549°
revolutions per day: 14.34218249
mean anomaly at epoch: 320.7824°
orbit number at epoch: 87808

The dashed part of the orbit path shows where the satellite is in the earth's shadow,  

DLR